ギブス彗星

C/2008 G1 ( Gibbs )

English version
Home page
Updated on October 12, 2008

---------------------------------------------------------------------

・ プロフィール

発見日 2008年4月7日
発見光度 19.4等
発見者 A. R. Gibbs (Mt. Lemmon)

・ 写真集

・ 軌道要素

The following orbital elements are taken from MPC 63136:

Epoch 2009 Jan. 9.0 TT = JDT 2454840.5
T 2009 Jan. 12.1400 TT                                  MPC
q   3.988981             (2000.0)            P               Q
z  +0.002800       Peri.   63.7352      -0.2032750      +0.8028325
 +/-0.000040       Node   215.9138      -0.7755061      +0.2174363
e   0.988831       Incl.   72.8482      +0.5977203      +0.5551409
From 147 observations 2008 Apr. 7-June 8, mean residual 0".7.

・ 光度変化

        m1 = 9.5 + 5 logΔ + 10.0 log r

---------------------------------------------------------------------

軌道要素はMPCのEphemerides and Orbital Elementsに掲載されたものです。
光度グラフはComet for Windowsで作成したものです。

---------------------------------------------------------------------

Copyright(C) Seiichi Yoshida (comet@aerith.net). All rights reserved.